Weather in Gumi

South Korea     36°07′29″N   128°20′47″E
temp.,
°C
wind,
m/s
gust,
m/s
humid.,
%
clouds,
%
prec.,
mm/h
press.,
hPa
HPBL,
m
14 may, fri
fri1400:00+16s1289100 0.0 101339
03:00+15s1192100 0.0 101327
06:00+15nnw1192100 0.0 101418
09:00+21ese1168100 0.0 1013460
12:00+24se2357100 0.0 1013814
15:00+26sse3449100 0.0 10111398
18:00+22se3664100 0.0 1011300
21:00+18se2376100 0.0 101263
15 may, sat
sat1500:00+17se2279100 0.0 101249
03:00+16sse1190100 0.4 101127
06:00+17se2291100 0.2 101175
09:00+16sse1194100 1.2 1010127
12:00+16se129899 3.6 1009142
15:00+17se1298100 4.8 1008130
18:00+17sse1296100 0.2 1007153
21:00+17sse1198100 0.6 100751
16 may, sun
sun1600:00+17s1198100 0.0 100722
03:00+17sse1199100 0.3 100615
06:00+17sse1299100 1.4 1007109
09:00+18se2399100 1.6 1007262
12:00+19se1299100 2.6 1005233
15:00+19sse2599100 11.7 1003382
18:00+19sse3699100 2.4 1002307
21:00+19sse2499100 10.2 1002250
17 may, mon
mon1700:00+17ese2499100 1.1 1002302
03:00+14ese2299100 3.4 1001152
06:00+14e2399100 2.0 1001205
09:00+13e1197100 4.1 1002183
12:00+14ene1196100 1.6 1004195
15:00+14se1193100 1.7 1006306
18:00+14ese1195100 0.0 1007149
21:00+14ne0096100 0.1 101049
18 may, tue
tue1800:00+14wnw0197100 0.0 101059
03:00+14nw119699 0.0 101032
06:00+12nw229653 0.0 101241
09:00+17nw246688 0.0 1013638
12:00+23nnw36400 0.0 10121235
15:00+25nw57325 0.0 10111704
18:00+22nw36524 0.0 1013376
21:00+15wnw22655 0.0 101517